Torna al catalogo

STARLINK-35456

AttivoComunicazioniVLEO
NORAD 65867·PAYLOAD·🇺🇸 United States

Lanciato Oct 3, 2025 da Vandenberg Space Force Base

Loading…

Prossimi Passaggi (prossime 24 ore)

TLE

AggiornatoSource: CelesTrak SupGP

Epoca: Sep 14, 2026, 14:37 UTC

1 65867C 25223P   26257.60951389  .00052815  00000+0  15602-2 0  2572
2 65867  53.1573 134.9158 0001262  74.7318 323.3766 15.34368709    17

Traccia STARLINK-35456 in tempo reale con AllMySat

Download on the App Store